Location: Doverdale
(52.2833°N, 2.2000°W)
Time: 02:48:58
(UTC+00:00)

Cosmos 44 - Pass Details

Date: 29 October 2020
Orbit: 577 x 784 km, 65.1° (Epoch: 27 November)

Event Time Altitude Azimuth Distance (km) Brightness Sun altitude
Rises 17:21:08 0° 204° (SSW) 2,870 7.1 -6.2°
Reaches altitude 10° 17:23:23 10° 199° (SSW) 1,997 6.2 -6.5°
Maximum altitude 17:27:45 51° 124° (SE) 820 3.4 -7.1°
Drops below altitude 10° 17:32:26 10° 49° (NE) 2,136 5.3 -7.8°
Enters shadow 17:33:23 - 47° (NE) 2,500 5.6 -8.0°
